{"data":{"norad_id":69463,"epoch":"2026-09-20T03:10:33.262752Z","epoch_age_seconds":57183,"freshness":"FRESH","line1":"1 69463U 26127W   26263.13232943  .00018015  00000+0  54283-3 0  9991","line2":"2 69463  53.1586 167.5740 0001299  99.5290 260.5859 15.34411441 16137","mean_motion":15.34411441,"eccentricity":0.0001299,"inclination_deg":53.1586,"raan_deg":167.574,"arg_perigee_deg":99.529,"mean_anomaly_deg":260.5859,"bstar":0.00054283,"rev_number":1613,"period_min":93.847058326255,"perigee_km":461.78061462534,"apogee_km":463.55785608529,"semimajor_km":6840.8062353553,"source":"CELESTRAK","updated_at":"2026-09-20T09:00:44.203032Z"}}